Radiation Dose at Monitoring Post of Fukushima Daini Nuclear Power Station
Date,Time,MP-1(microSv/h),MP-2(microSv/h),MP-3(microSv/h),MP-4(microSv/h),MP-5(microSv/h),MP-6(microSv/h),MP-7(microSv/h),Wind Direction,Wind Velocity(m/s),Rain
2022/01/02,00:00,0.162,0.148,0.231,0.225,0.228,0.125,0.079,northwest,6.0,No
2022/01/02,00:10,0.160,0.148,0.230,0.225,0.227,0.125,0.079,west-northwest,8.1,No
2022/01/02,00:20,0.161,0.148,0.229,0.224,0.227,0.125,0.079,west-northwest,7.9,No
2022/01/02,00:30,0.160,0.148,0.230,0.225,0.228,0.125,0.079,northwest,3.6,No
2022/01/02,00:40,0.162,0.148,0.230,0.226,0.227,0.125,0.079,west-southwest,1.3,No
2022/01/02,00:50,0.162,0.148,0.230,0.226,0.228,0.124,0.080,west-northwest,1.3,No
2022/01/02,01:00,0.162,0.148,0.231,0.225,0.227,0.124,0.079,west,2.5,No
2022/01/02,01:10,0.160,0.148,0.230,0.225,0.227,0.125,0.079,west,2.4,No
2022/01/02,01:20,0.161,0.148,0.230,0.224,0.226,0.124,0.079,west-southwest,0.7,No
2022/01/02,01:30,0.161,0.148,0.230,0.224,0.227,0.126,0.080,-,CALM,No
2022/01/02,01:40,0.162,0.148,0.230,0.225,0.227,0.125,0.080,-,CALM,No
2022/01/02,01:50,0.162,0.148,0.229,0.226,0.228,0.124,0.080,-,CALM,No
2022/01/02,02:00,0.160,0.148,0.231,0.225,0.228,0.125,0.079,west-southwest,1.1,No
2022/01/02,02:10,0.162,0.149,0.230,0.224,0.228,0.125,0.080,west-northwest,1.2,No
2022/01/02,02:20,0.160,0.148,0.230,0.226,0.227,0.124,0.079,west-southwest,2.3,No
2022/01/02,02:30,0.161,0.148,0.230,0.225,0.227,0.125,0.079,south-southwest,1.2,No
2022/01/02,02:40,0.161,0.147,0.228,0.226,0.228,0.125,0.080,south-southwest,1.3,No
2022/01/02,02:50,0.160,0.148,0.231,0.225,0.229,0.124,0.079,west-northwest,0.7,No
2022/01/02,03:00,0.161,0.148,0.230,0.225,0.228,0.125,0.080,west-southwest,0.6,No
2022/01/02,03:10,0.161,0.147,0.231,0.226,0.227,0.125,0.080,west,1.5,No
2022/01/02,03:20,0.162,0.148,0.230,0.226,0.227,0.126,0.079,west,3.1,No
2022/01/02,03:30,0.161,0.147,0.229,0.225,0.227,0.124,0.080,west-northwest,3.8,No
2022/01/02,03:40,0.161,0.148,0.231,0.224,0.227,0.125,0.080,west-northwest,3.7,No
2022/01/02,03:50,0.161,0.148,0.230,0.225,0.227,0.124,0.080,northwest,3.8,No
2022/01/02,04:00,0.161,0.148,0.230,0.225,0.228,0.124,0.080,west-northwest,3.4,No
2022/01/02,04:10,0.160,0.147,0.230,0.226,0.227,0.125,0.080,west-northwest,3.1,No
2022/01/02,04:20,0.161,0.147,0.230,0.225,0.227,0.124,0.079,west-northwest,6.6,No
2022/01/02,04:30,0.161,0.148,0.229,0.225,0.227,0.125,0.079,west-northwest,5.6,No
2022/01/02,04:40,0.160,0.148,0.230,0.225,0.226,0.124,0.079,west-northwest,4.8,No
2022/01/02,04:50,0.161,0.147,0.230,0.224,0.227,0.124,0.080,northwest,3.6,No
2022/01/02,05:00,0.160,0.148,0.230,0.224,0.227,0.125,0.079,west-northwest,4.4,No
2022/01/02,05:10,0.161,0.148,0.230,0.224,0.226,0.124,0.080,northwest,4.7,No
2022/01/02,05:20,0.161,0.148,0.230,0.224,0.227,0.124,0.079,west-northwest,4.6,No
2022/01/02,05:30,0.160,0.148,0.230,0.224,0.226,0.124,0.079,west-northwest,4.9,No
2022/01/02,05:40,0.161,0.148,0.231,0.225,0.227,0.124,0.079,west-northwest,6.6,No
2022/01/02,05:50,0.160,0.147,0.230,0.224,0.227,0.124,0.080,west,7.4,No
2022/01/02,06:00,0.161,0.148,0.229,0.224,0.227,0.124,0.079,west-northwest,8.7,No
2022/01/02,06:10,0.160,0.149,0.230,0.225,0.227,0.124,0.080,west,9.0,No
2022/01/02,06:20,0.160,0.148,0.230,0.225,0.228,0.125,0.079,west,8.3,No
2022/01/02,06:30,0.161,0.148,0.229,0.224,0.227,0.125,0.079,west-northwest,8.1,No
2022/01/02,06:40,0.160,0.147,0.230,0.225,0.227,0.124,0.080,west-northwest,8.8,No
2022/01/02,06:50,0.160,0.147,0.230,0.226,0.227,0.124,0.079,west-northwest,9.5,No
2022/01/02,07:00,0.161,0.147,0.230,0.225,0.227,0.124,0.079,west,9.3,No
2022/01/02,07:10,0.160,0.148,0.230,0.225,0.227,0.124,0.080,west-northwest,7.0,No
2022/01/02,07:20,0.160,0.147,0.230,0.224,0.227,0.124,0.079,west-northwest,7.5,No
2022/01/02,07:30,0.160,0.148,0.229,0.224,0.227,0.124,0.079,west-northwest,8.1,No
2022/01/02,07:40,0.160,0.147,0.229,0.224,0.226,0.124,0.079,west-northwest,8.1,No
2022/01/02,07:50,0.160,0.148,0.230,0.224,0.226,0.124,0.079,west-northwest,5.9,No
2022/01/02,08:00,0.160,0.148,0.230,0.224,0.227,0.125,0.079,northwest,1.9,No
2022/01/02,08:10,0.161,0.147,0.230,0.224,0.226,0.125,0.079,west-northwest,0.8,No
2022/01/02,08:20,0.160,0.146,0.230,0.224,0.226,0.124,0.079,northwest,1.0,No
2022/01/02,08:30,0.160,0.147,0.230,0.224,0.227,0.124,0.079,-,CALM,No
2022/01/02,08:40,0.160,0.148,0.231,0.223,0.227,0.125,0.080,-,CALM,No
2022/01/02,08:50,0.161,0.148,0.230,0.224,0.227,0.125,0.079,southwest,0.9,No
2022/01/02,09:00,0.161,0.148,0.230,0.224,0.226,0.124,0.079,west,1.6,No
2022/01/02,09:10,0.161,0.148,0.230,0.222,0.227,0.124,0.079,west-northwest,0.7,No
2022/01/02,09:20,0.161,0.147,0.231,0.225,0.226,0.124,0.079,west,2.2,No
2022/01/02,09:30,0.160,0.148,0.230,0.225,0.226,0.124,0.078,west-northwest,2.3,No
2022/01/02,09:40,0.161,0.147,0.229,0.223,0.228,0.124,0.080,west-northwest,2.8,No
2022/01/02,09:50,0.160,0.147,0.229,0.225,0.227,0.124,0.079,west-northwest,3.5,No
2022/01/02,10:00,0.161,0.148,0.230,0.224,0.227,0.125,0.079,west,3.1,No
2022/01/02,10:10,0.160,0.147,0.229,0.224,0.226,0.124,0.080,west,5.1,No
2022/01/02,10:20,0.161,0.147,0.230,0.224,0.227,0.125,0.079,west,4.5,No
2022/01/02,10:30,0.161,0.147,0.229,0.224,0.227,0.125,0.079,west,2.7,No
2022/01/02,10:40,0.160,0.148,0.229,0.224,0.226,0.125,0.079,west-northwest,3.2,No
2022/01/02,10:50,0.160,0.146,0.228,0.224,0.227,0.125,0.080,west,3.4,No
2022/01/02,11:00,0.160,0.147,0.228,0.225,0.228,0.124,0.079,west-northwest,3.4,No
2022/01/02,11:10,0.160,0.146,0.228,0.223,0.226,0.124,0.079,west-northwest,3.1,No
2022/01/02,11:20,0.160,0.147,0.229,0.225,0.228,0.125,0.079,west,2.2,No
2022/01/02,11:30,0.161,0.147,0.228,0.225,0.226,0.124,0.079,south-southwest,2.1,No
2022/01/02,11:40,0.159,0.147,0.229,0.223,0.227,0.126,0.079,south-southwest,2.7,No
2022/01/02,11:50,0.161,0.147,0.230,0.225,0.225,0.125,0.080,south-southwest,3.3,No
2022/01/02,12:00,0.160,0.147,0.229,0.225,0.228,0.125,0.080,southwest,2.8,No
2022/01/02,12:10,0.159,0.147,0.229,0.224,0.226,0.125,0.079,south-southwest,3.4,No
2022/01/02,12:20,0.160,0.148,0.230,0.225,0.227,0.125,0.079,south-southwest,4.2,No
2022/01/02,12:30,0.161,0.147,0.229,0.224,0.227,0.125,0.080,southwest,3.6,No
2022/01/02,12:40,0.160,0.147,0.228,0.225,0.226,0.125,0.079,west-southwest,3.3,No
2022/01/02,12:50,0.161,0.146,0.230,0.224,0.227,0.125,0.079,south-southwest,3.4,No
2022/01/02,13:00,0.160,0.147,0.229,0.224,0.228,0.126,0.079,south-southwest,4.2,No
2022/01/02,13:10,0.161,0.147,0.229,0.224,0.228,0.124,0.079,south-southwest,2.8,No
2022/01/02,13:20,0.160,0.148,0.230,0.224,0.228,0.125,0.080,south-southwest,2.7,No
2022/01/02,13:30,0.161,0.148,0.230,0.225,0.227,0.125,0.079,south,5.5,No
2022/01/02,13:40,0.160,0.149,0.231,0.226,0.229,0.125,0.080,south-southeast,6.7,No
2022/01/02,13:50,0.160,0.147,0.230,0.225,0.228,0.125,0.080,south,7.0,No
2022/01/02,14:00,0.162,0.146,0.230,0.226,0.227,0.126,0.079,south,6.6,No
2022/01/02,14:10,0.160,0.148,0.230,0.224,0.228,0.125,0.079,south,6.3,No
2022/01/02,14:20,0.161,0.148,0.230,0.225,0.227,0.125,0.080,south,7.1,No
2022/01/02,14:30,0.161,0.149,0.230,0.226,0.228,0.125,0.079,south,7.0,No
2022/01/02,14:40,0.160,0.147,0.230,0.226,0.228,0.124,0.079,south,7.3,No
2022/01/02,14:50,0.161,0.147,0.230,0.225,0.228,0.125,0.079,south,6.6,No
2022/01/02,15:00,0.161,0.149,0.230,0.225,0.229,0.125,0.079,south,6.6,No
2022/01/02,15:10,0.161,0.148,0.230,0.225,0.228,0.124,0.080,south,6.4,No
2022/01/02,15:20,0.161,0.148,0.230,0.225,0.229,0.125,0.079,south,6.7,No
2022/01/02,15:30,0.161,0.148,0.230,0.225,0.229,0.124,0.080,south,4.6,No
2022/01/02,15:40,0.161,0.149,0.231,0.226,0.228,0.125,0.080,south,5.0,No
2022/01/02,15:50,0.161,0.148,0.231,0.226,0.229,0.125,0.079,south,4.7,No
2022/01/02,16:00,0.161,0.149,0.229,0.226,0.229,0.126,0.079,south,5.3,No
2022/01/02,16:10,0.161,0.148,0.231,0.226,0.228,0.125,0.080,south,5.3,No
2022/01/02,16:20,0.161,0.147,0.231,0.225,0.229,0.126,0.080,south,4.6,No
2022/01/02,16:30,0.162,0.148,0.230,0.226,0.227,0.126,0.079,south,3.9,No
2022/01/02,16:40,0.162,0.148,0.231,0.226,0.228,0.126,0.080,south,3.6,No
2022/01/02,16:50,0.162,0.148,0.231,0.225,0.227,0.126,0.080,south,4.6,No
2022/01/02,17:00,0.161,0.149,0.230,0.225,0.229,0.125,0.079,south,5.9,No
2022/01/02,17:10,0.161,0.148,0.229,0.225,0.229,0.125,0.080,south,6.6,No
2022/01/02,17:20,0.160,0.149,0.230,0.225,0.229,0.125,0.079,south-southwest,6.1,No
2022/01/02,17:30,0.161,0.148,0.230,0.225,0.227,0.125,0.080,south,6.7,No
2022/01/02,17:40,0.160,0.148,0.230,0.226,0.229,0.126,0.079,south-southwest,6.3,No
2022/01/02,17:50,0.161,0.149,0.230,0.226,0.227,0.126,0.080,south-southwest,5.9,No
2022/01/02,18:00,0.161,0.149,0.230,0.225,0.229,0.126,0.080,south,6.2,No
2022/01/02,18:10,0.162,0.149,0.231,0.226,0.228,0.125,0.081,south-southwest,6.5,No
2022/01/02,18:20,0.160,0.149,0.231,0.227,0.229,0.125,0.079,southwest,6.3,No
2022/01/02,18:30,0.161,0.148,0.231,0.226,0.228,0.126,0.080,southwest,5.5,No
2022/01/02,18:40,0.162,0.148,0.230,0.227,0.228,0.125,0.079,south-southwest,5.6,No
2022/01/02,18:50,0.160,0.148,0.231,0.226,0.228,0.125,0.079,south-southwest,4.4,No
2022/01/02,19:00,0.161,0.148,0.231,0.226,0.227,0.126,0.080,south-southwest,5.0,No
2022/01/02,19:10,0.162,0.148,0.231,0.226,0.227,0.126,0.080,south-southwest,5.1,No
2022/01/02,19:20,0.161,0.148,0.230,0.225,0.229,0.126,0.080,south-southwest,5.4,No
2022/01/02,19:30,0.161,0.148,0.230,0.224,0.227,0.126,0.080,south-southwest,5.6,No
2022/01/02,19:40,0.162,0.149,0.231,0.225,0.228,0.126,0.080,southwest,5.3,No
2022/01/02,19:50,0.161,0.148,0.231,0.226,0.228,0.126,0.080,west-southwest,4.5,No
2022/01/02,20:00,0.161,0.150,0.231,0.226,0.229,0.126,0.080,southwest,5.2,No
2022/01/02,20:10,0.162,0.149,0.230,0.227,0.228,0.126,0.080,south-southwest,3.4,No
2022/01/02,20:20,0.160,0.149,0.231,0.225,0.228,0.126,0.080,south,4.2,No
2022/01/02,20:30,0.160,0.149,0.231,0.225,0.229,0.126,0.080,south,4.1,No
2022/01/02,20:40,0.162,0.149,0.230,0.226,0.228,0.127,0.081,south-southwest,1.9,No
2022/01/02,20:50,0.161,0.148,0.230,0.226,0.228,0.125,0.080,west,3.7,No
2022/01/02,21:00,0.160,0.148,0.230,0.226,0.228,0.126,0.080,west-southwest,6.3,No
2022/01/02,21:10,0.162,0.148,0.230,0.226,0.227,0.125,0.080,west-southwest,5.1,No
2022/01/02,21:20,0.162,0.148,0.231,0.227,0.229,0.125,0.081,west-southwest,4.2,No
2022/01/02,21:30,0.162,0.148,0.230,0.225,0.228,0.126,0.081,west-northwest,2.0,No
2022/01/02,21:40,0.161,0.148,0.231,0.225,0.228,0.126,0.080,northwest,3.2,No
2022/01/02,21:50,0.160,0.148,0.230,0.226,0.228,0.126,0.080,northwest,1.8,No
2022/01/02,22:00,0.162,0.150,0.230,0.227,0.227,0.126,0.080,north-northwest,2.9,No
2022/01/02,22:10,0.160,0.148,0.230,0.227,0.228,0.126,0.080,west-northwest,2.7,No
2022/01/02,22:20,0.161,0.147,0.231,0.226,0.227,0.125,0.080,west,1.8,No
2022/01/02,22:30,0.162,0.148,0.230,0.225,0.228,0.125,0.080,northwest,1.7,No
2022/01/02,22:40,0.162,0.148,0.230,0.226,0.228,0.127,0.080,west-northwest,2.7,No
2022/01/02,22:50,0.162,0.148,0.231,0.226,0.227,0.126,0.080,northwest,4.8,No
2022/01/02,23:00,0.162,0.149,0.231,0.226,0.229,0.126,0.081,northwest,4.9,No
2022/01/02,23:10,0.161,0.148,0.231,0.227,0.227,0.126,0.080,northwest,4.8,Yes
2022/01/02,23:20,0.162,0.149,0.232,0.227,0.227,0.126,0.080,north-northwest,5.0,Yes
2022/01/02,23:30,0.162,0.149,0.231,0.225,0.230,0.126,0.080,northwest,5.5,Yes
2022/01/02,23:40,0.162,0.149,0.232,0.225,0.229,0.126,0.081,northwest,4.3,Yes
2022/01/02,23:50,0.161,0.149,0.230,0.226,0.228,0.126,0.081,north-northwest,5.2,Yes
